Skip Page Navigation
NASA JPL Caltech
NASA Logo - Jet Propulsion Laboratory + View the NASA Portal
+ Center for Near-Earth Object Studies
JPL Home Earth Solar System Stars & Galaxies Technology
JPL Solar System Dynamics
BODIES ORBITS EPHEMERIDES TOOLS PHYSICAL DATA DISCOVERY FAQ SITE MAP
IMPORTANT: The SSD Announcement email list is now available. Major changes are coming in the near future, including possible hostname and/or URL changes. To be notified of such changes, subscribe to this email list.

Please visit this page for more details.


JPL Small-Body Database Browser
Search: [ help ]  
193231 (2000 RU83)
Classification: Main-belt Asteroid          SPK-ID: 2193231
Ephemeris | Orbit Diagram | Orbital Elements | Mission Design | Physical Parameters | Discovery Circumstances | Close-Approach Data ]

[ show orbit diagram ]
Orbital Elements at Epoch 2458600.5 (2019-Apr-27.0) TDB
Reference: JPL 15 (heliocentric ecliptic J2000)
 Element Value Uncertainty (1-sigma)   Units 
e .06197282421991053 4.1426e-08  
a 2.425564010923527 1.5847e-08 au
q 2.275244958840422 1.0129e-07 au
i 7.014742197516346 5.8329e-06 deg
node 288.9274295040169 4.8082e-05 deg
peri 131.4114498435086 7.6743e-05 deg
M 276.4201184585657 5.9396e-05 deg
tp 2458920.844142765363
(2020-Mar-12.34414277)
0.00022806 TDB
period 1379.804437008678
3.78
1.3522e-05
3.702e-08
d
yr
n .2609065388863769 2.5569e-09 deg/d
Q 2.575883063006631 1.683e-08 au
  Orbit Determination Parameters
   # obs. used (total)      453  
   data-arc span      6018 days (16.48 yr)  
   first obs. used      2000-09-01  
   last obs. used      2017-02-22  
   planetary ephem.      DE431  
   SB-pert. ephem.      SB431-N16  
   condition code      0  
   norm. resid. RMS      .57006  
   source      ORB  
   producer      Otto Matic  
   solution date      2017-Apr-11 05:48:50  

Additional Information
 Earth MOID = 1.29513 au 
 Jupiter MOID = 2.6166 au 
 T_jup = 3.498 
[ show covariance matrix ]

Ephemeris | Orbit Diagram | Orbital Elements | Mission Design | Physical Parameters | Discovery Circumstances | Close-Approach Data ]

Physical Parameter Table
Parameter Symbol Value Units Sigma Reference Notes
absolute magnitude H 15.9   n/a MPO348492  

193231 (2000 RU83)          Discovered 2000-Sep-01 by LINEAR at Socorro
Reference: 20081113/Numbers.arcLast Updated: 2008-11-17

[ show close-approach data ]
Alternate Designations
 2000 RU83 = 2002 AJ65 
Ephemeris | Orbit Diagram | Orbital Elements | Mission Design | Physical Parameters | Discovery Circumstances | Close-Approach Data ]
ABOUT SSD CREDITS/AWARDS PRIVACY/COPYRIGHT GLOSSARY LINKS
FirstGov
(server date/time)  
NASA Home Page
Site Manager:   Ryan S. Park
Webmaster  Alan B. Chamberlin